Retour au catalogue

TITAN 34D TRANSTAGE R/B

ActifMEO
NORAD 14677·ROCKET BODY·🇺🇸 United States

Lancé Jan 31, 1984 depuis Cape Canaveral Space Force Station

Loading…

Prochains Passages (prochaines 24 heures)

TLE

FraisSource: Space-Track

Époque: Sep 14, 2026, 03:22 UTC

1 14677U 84009C   26257.14058582 -.00000343  00000-0  00000-0 0  9992
2 14677   6.1086   1.6304 1037777 104.9256 266.7805  0.99450400 26756

Suivez TITAN 34D TRANSTAGE R/B en temps réel avec AllMySat

Download on the App Store